Hourly Data Report for October 04, 2016

All times are specified in Local Standard Time (LST). Add 1 hour to adjust for Daylight Saving Time where and when it is observed.

WINNIPEG A CS
MANITOBA

49°55'00.000" N
97°14'58.000" W
238.70 m
502S001
71849
XWG

Download Data

Hourly Data (October 2016)
Hourly Data Report for October 4, 2016
Temp Definition
°C
Dew Point Temp Definition
°C
Rel Hum Definition
%
Wind Dir Definition
10's deg

Wind Spd Definition
km/h
Visibility Definition
km
Stn Press Definition
kPa
Hmdx Definition


Wind Chill Definition


Weather Definition


TIME
00:00 17.3 10.3 64 14 27   97.64     LegendNANA
01:00 17.2 10.6 65 14 27   97.60     LegendNANA
02:00 16.5 10.7 68 14 27   97.56     LegendNANA
03:00 16.4 10.6 69 14 28   97.51     LegendNANA
04:00 16.5 10.7 69 15 31   97.48     LegendNANA
05:00 14.6 12.3 86 14 24   97.48     LegendNANA
06:00 15.4 12.0 80 13 28   97.42     LegendNANA
07:00 15.3 12.2 82 13 25   97.39     LegendNANA
08:00 15.0 12.4 85 13 28   97.42     LegendNANA
09:00 15.1 12.5 85 14 29   97.40     LegendNANA
10:00 15.8 12.8 83 13 29   97.35     LegendNANA
11:00 16.6 13.1 80 15 28   97.35     LegendNANA
12:00 17.2 13.4 78 14 29   97.31     LegendNANA
13:00 17.3 13.6 79 14 29   97.28     LegendNANA
14:00 18.0 13.9 77 15 27   97.23     LegendNANA
15:00 17.0 14.7 87 16 27   97.24     LegendNANA
16:00 16.2 15.1 93 14 17   97.25     LegendNANA
17:00 16.2 15.5 95 15 19   97.24     LegendNANA
18:00 16.4 15.7 96 14 15   97.22     LegendNANA
19:00 16.7 15.5 93 13 18   97.17     LegendNANA
20:00 16.7 15.4 92 16 23   97.18     LegendNANA
21:00 16.5 15.5 94 16 22   97.16     LegendNANA
22:00 16.2 15.3 95 13 20   97.11     LegendNANA
23:00 16.1 15.2 95 13 17   97.05     LegendNANA

Notes on Data Quality.

Legend

  • E = Estimated
  • M = Missing
  • NA = Not Available
  • ‡ = Partner data that is not subject to review by the National Climate Archives
Date modified: